Torna al catalogo

STARLINK-35650

AttivoComunicazioniVLEO
NORAD 66573·PAYLOAD·🇺🇸 United States

Lanciato Nov 21, 2025 da Cape Canaveral Space Force Station

Loading…

Prossimi Passaggi (prossime 24 ore)

TLE

AggiornatoSource: CelesTrak SupGP

Epoca: Sep 15, 2026, 03:37 UTC

1 66573C 25268S   26258.15118056  .00049044  00000+0  17760-2 0  2581
2 66573  43.0011 357.3398 0001721 266.0552  51.8324 15.27560544    16

Traccia STARLINK-35650 in tempo reale con AllMySat

Download on the App Store